Location: Chippewa Lake
(41.0698°N, 81.9010°W)
Time: 06:26:55
(UTC+00:00)

Cosmos 2084 - Pass Details

Date: 28 September 2021
Orbit: 528 x 653 km, 62.8° (Epoch: 23 October)

Event Time Altitude Azimuth Distance (km) Brightness Sun altitude
Exits shadow 08:24:44 12° 103° (ESE) 1,653 6.2 -32.8°
Drops below altitude 10° 08:25:52 10° 86° (E) 1,788 6.6 -32.7°
Sets 08:29:14 0° 57° (ENE) 2,705 8.0 -32.1°
